When you browse on this site, cookies collect data to enhance your experience and personalize the content and advertising you see.
Visit our Privacy Policy to learn more. By continuing to use the site, you agree to this use of cookies and data.
  • In Österreich
  • Länderverzeichnis
  • Für 7 Tage
  • Wassertemperatur
  • Satellitenkarten
  • Wetterkarte
  • News
  • Widgets
  • user-avatar
    Anmelden

    Stündliche Wetter San Miguel de Tucumán

    Heute, 21 März, Donnerstag

    Zeit Temperatur Niederschläge Wind Luftdruck Luftfeuchtigkeit
    00:00 +14°C° 0 mm 0 m/S 725 mmHg 90%
    01:00 +14°C° 0 mm 0 m/S 724 mmHg 89%
    02:00 +14°C° 0 mm 0 m/S 724 mmHg 89%
    03:00 +14°C° 0 mm 0 m/S 724 mmHg 89%
    04:00 +14°C° 0 mm 0 m/S 723 mmHg 89%
    05:00 +14°C° 0 mm 0 m/S 723 mmHg 90%
    06:00 +14°C° 0 mm 0 m/S 723 mmHg 87%
    07:00 +15°C° 0 mm 0 m/S 723 mmHg 85%
    08:00 +15°C° 0 mm 0 m/S 723 mmHg 83%
    09:00 +19°C° 0 mm 1 m/S 723 mmHg 76%
    10:00 +20°C° 0 mm 2 m/S 723 mmHg 68%
    11:00 +22°C° 0 mm 3 m/S 723 mmHg 61%
    12:00 +22°C° 0 mm 3 m/S 722 mmHg 64%
    13:00 +23°C° 0 mm 2 m/S 721 mmHg 67%
    14:00 +21°C° 0 mm 2 m/S 721 mmHg 69%
    15:00 +23°C° 0 mm 2 m/S 720 mmHg 69%
    16:00 +23°C° 0 mm 2 m/S 719 mmHg 69%
    17:00 +23°C° 0 mm 2 m/S 719 mmHg 69%
    18:00 +22°C° 0 mm 1 m/S 719 mmHg 75%
    19:00 +21°C° 0 mm 1 m/S 719 mmHg 80%
    20:00 +17°C° 0 mm 0 m/S 720 mmHg 86%
    21:00 +19°C° 0 mm 1 m/S 720 mmHg 88%
    22:00 +18°C° 0 mm 1 m/S 720 mmHg 89%
    23:00 +18°C° 0 mm 1 m/S 720 mmHg 90%

    Morgen, 22 März, Freitag

    Zeit Temperatur Niederschläge Wind Luftdruck Luftfeuchtigkeit
    00:00 +18°C° 0 mm 1 m/S 720 mmHg 91%
    01:00 +18°C° 0 mm 1 m/S 720 mmHg 91%
    02:00 +16°C° 0 mm 1 m/S 720 mmHg 91%
    03:00 +16°C° 0 mm 1 m/S 720 mmHg 92%
    04:00 +15°C° 0 mm 0 m/S 720 mmHg 92%
    05:00 +15°C° 0 mm 0 m/S 720 mmHg 93%
    06:00 +16°C° 0 mm 0 m/S 721 mmHg 89%
    07:00 +17°C° 0 mm 0 m/S 721 mmHg 86%
    08:00 +18°C° 0 mm 0 m/S 722 mmHg 82%
    09:00 +22°C° 0 mm 1 m/S 722 mmHg 75%
    10:00 +24°C° 0 mm 2 m/S 722 mmHg 68%
    11:00 +26°C° 0 mm 2 m/S 723 mmHg 62%
    12:00 +27°C° 0 mm 2 m/S 722 mmHg 61%
    13:00 +27°C° 0 mm 2 m/S 721 mmHg 60%
    14:00 +28°C° 0 mm 2 m/S 721 mmHg 59%
    15:00 +27°C° 0 mm 2 m/S 720 mmHg 61%
    16:00 +27°C° 0 mm 2 m/S 720 mmHg 64%
    17:00 +27°C° 0 mm 1 m/S 720 mmHg 66%
    18:00 +25°C° 0 mm 1 m/S 720 mmHg 71%
    19:00 +24°C° 0 mm 1 m/S 720 mmHg 77%
    20:00 +20°C° 0 mm 0 m/S 721 mmHg 82%
    21:00 +22°C° 0 mm 1 m/S 721 mmHg 83%
    22:00 +22°C° 0 mm 1 m/S 722 mmHg 84%
    23:00 +22°C° 0 mm 1 m/S 722 mmHg 85%

    übermorgen, 23 März, Samstag

    Zeit Temperatur Niederschläge Wind Luftdruck Luftfeuchtigkeit
    00:00 +21°C° 0 mm 1 m/S 722 mmHg 87%
    01:00 +21°C° 0 mm 1 m/S 721 mmHg 89%
    02:00 +20°C° 0 mm 1 m/S 721 mmHg 91%
    03:00 +20°C° 0 mm 1 m/S 721 mmHg 91%
    04:00 +19°C° 0 mm 1 m/S 720 mmHg 91%
    05:00 +19°C° 0 mm 1 m/S 720 mmHg 91%
    06:00 +20°C° 0 mm 1 m/S 721 mmHg 87%
    07:00 +22°C° 0 mm 1 m/S 721 mmHg 82%
    08:00 +23°C° 0 mm 1 m/S 721 mmHg 77%
    09:00 +25°C° 0 mm 2 m/S 721 mmHg 70%
    10:00 +27°C° 0 mm 2 m/S 721 mmHg 63%
    11:00 +29°C° 0 mm 2 m/S 721 mmHg 56%
    12:00 +30°C° 0 mm 2 m/S 720 mmHg 55%
    13:00 +30°C° 0 mm 2 m/S 719 mmHg 54%
    14:00 +31°C° 0 mm 3 m/S 719 mmHg 53%
    15:00 +30°C° 0 mm 2 m/S 718 mmHg 57%
    16:00 +29°C° 0 mm 2 m/S 718 mmHg 61%
    17:00 +29°C° 0 mm 1 m/S 718 mmHg 65%
    18:00 +27°C° 0 mm 1 m/S 718 mmHg 69%
    19:00 +26°C° 0 mm 1 m/S 719 mmHg 73%
    20:00 +25°C° 0 mm 1 m/S 719 mmHg 77%
    21:00 +24°C° 0 mm 1 m/S 720 mmHg 79%
    22:00 +24°C° 0 mm 1 m/S 720 mmHg 81%
    23:00 +23°C° 0 mm 1 m/S 721 mmHg 83%

    24 März, Sonntag

    Zeit Temperatur Niederschläge Wind Luftdruck Luftfeuchtigkeit
    00:00 +23°C° 0 mm 1 m/S 721 mmHg 83%
    01:00 +22°C° 0 mm 1 m/S 720 mmHg 82%
    02:00 +22°C° 0 mm 1 m/S 720 mmHg 82%
    03:00 +22°C° 0 mm 1 m/S 720 mmHg 83%
    04:00 +19°C° 0 mm 0 m/S 721 mmHg 83%
    05:00 +19°C° 0 mm 0 m/S 721 mmHg 84%
    06:00 +20°C° 0 mm 0 m/S 721 mmHg 81%
    07:00 +23°C° 0 mm 1 m/S 722 mmHg 78%
    08:00 +24°C° 0 mm 1 m/S 723 mmHg 75%
    09:00 +26°C° 0 mm 1 m/S 723 mmHg 69%
    10:00 +28°C° 0 mm 1 m/S 723 mmHg 63%
    11:00 +30°C° 0 mm 2 m/S 723 mmHg 57%
    12:00 +31°C° 0 mm 2 m/S 722 mmHg 54%
    13:00 +31°C° 0 mm 2 m/S 721 mmHg 51%
    14:00 +32°C° 0 mm 2 m/S 721 mmHg 49%
    15:00 +31°C° 0.1 mm 2 m/S 720 mmHg 52%
    16:00 +31°C° 0.1 mm 1 m/S 719 mmHg 54%
    17:00 +30°C° 0.1 mm 1 m/S 719 mmHg 57%
    18:00 +29°C° 0 mm 1 m/S 719 mmHg 63%
    19:00 +27°C° 0 mm 1 m/S 719 mmHg 70%
    20:00 +25°C° 0 mm 1 m/S 719 mmHg 76%
    21:00 +25°C° 0 mm 1 m/S 720 mmHg 77%
    22:00 +25°C° 0 mm 1 m/S 720 mmHg 78%
    23:00 +25°C° 0 mm 1 m/S 720 mmHg 79%

    25 März, Montag

    Zeit Temperatur Niederschläge Wind Luftdruck Luftfeuchtigkeit
    00:00 +24°C° 0.1 mm 1 m/S 720 mmHg 81%
    01:00 +24°C° 0.1 mm 1 m/S 720 mmHg 82%
    02:00 +23°C° 0.1 mm 1 m/S 719 mmHg 84%
    03:00 +21°C° 0.1 mm 0 m/S 719 mmHg 86%
    04:00 +21°C° 0.1 mm 0 m/S 719 mmHg 87%
    05:00 +21°C° 0.1 mm 0 m/S 719 mmHg 89%
    06:00 +21°C° 0 mm 0 m/S 719 mmHg 89%
    07:00 +23°C° 0 mm 1 m/S 720 mmHg 88%
    08:00 +24°C° 0 mm 1 m/S 720 mmHg 88%
    09:00 +24°C° 0.1 mm 1 m/S 720 mmHg 84%
    10:00 +25°C° 0.1 mm 1 m/S 721 mmHg 79%
    11:00 +26°C° 0.1 mm 1 m/S 721 mmHg 75%
    12:00 +27°C° 0.2 mm 2 m/S 720 mmHg 72%
    13:00 +27°C° 0.2 mm 2 m/S 720 mmHg 69%
    14:00 +28°C° 0.2 mm 2 m/S 719 mmHg 66%
    15:00 +27°C° 0.1 mm 2 m/S 719 mmHg 69%
    16:00 +26°C° 0.1 mm 1 m/S 719 mmHg 72%
    17:00 +25°C° 0.1 mm 1 m/S 718 mmHg 74%
    18:00 +24°C° 0 mm 1 m/S 719 mmHg 78%
    19:00 +23°C° 0 mm 1 m/S 720 mmHg 82%
    20:00 +23°C° 0 mm 1 m/S 720 mmHg 86%
    21:00 +22°C° 0.4 mm 1 m/S 721 mmHg 89%
    22:00 +22°C° 0.4 mm 1 m/S 721 mmHg 91%
    23:00 +22°C° 0.4 mm 1 m/S 722 mmHg 94%

    26 März, Dienstag

    Zeit Temperatur Niederschläge Wind Luftdruck Luftfeuchtigkeit
    00:00 +20°C° 0.4 mm 2 m/S 722 mmHg 94%
    01:00 +20°C° 0.4 mm 2 m/S 722 mmHg 95%
    02:00 +20°C° 0.4 mm 3 m/S 722 mmHg 95%
    03:00 +19°C° 0.2 mm 2 m/S 723 mmHg 95%
    04:00 +19°C° 0.2 mm 2 m/S 723 mmHg 94%
    05:00 +18°C° 0.2 mm 2 m/S 723 mmHg 93%
    06:00 +18°C° 0 mm 2 m/S 724 mmHg 92%
    07:00 +19°C° 0 mm 1 m/S 724 mmHg 90%
    08:00 +19°C° 0 mm 1 m/S 725 mmHg 89%
    09:00 +20°C° 0 mm 1 m/S 725 mmHg 81%
    10:00 +20°C° 0 mm 2 m/S 725 mmHg 72%
    11:00 +21°C° 0 mm 2 m/S 726 mmHg 64%
    12:00 +21°C° 0 mm 2 m/S 725 mmHg 63%
    13:00 +21°C° 0 mm 2 m/S 725 mmHg 62%
    14:00 +21°C° 0 mm 2 m/S 724 mmHg 61%
    15:00 +21°C° 0 mm 2 m/S 724 mmHg 62%
    16:00 +22°C° 0 mm 1 m/S 724 mmHg 63%
    17:00 +22°C° 0 mm 1 m/S 723 mmHg 64%
    18:00 +21°C° 0 mm 1 m/S 724 mmHg 69%
    19:00 +19°C° 0 mm 1 m/S 724 mmHg 75%
    20:00 +18°C° 0 mm 1 m/S 725 mmHg 80%
    21:00 +18°C° 0 mm 1 m/S 725 mmHg 80%
    22:00 +18°C° 0 mm 1 m/S 726 mmHg 80%
    23:00 +18°C° 0 mm 1 m/S 726 mmHg 80%
    Mehr zeigen